TimeCST,TemperatureF,Dew PointF,Humidity,Sea Level PressureIn,VisibilityMPH,Wind Direction,Wind SpeedMPH,Gust SpeedMPH,PrecipitationIn,Events,Conditions,WindDirDegrees,DateUTC
12:53 AM,-9999,-9999,N/A,29.45,10.0,South,15.0,-,N/A,,Mostly Cloudy,170,2013-11-16 06:53:00
1:53 AM,-9999,-9999,N/A,29.43,8.0,SSE,12.7,-,N/A,,Partly Cloudy,160,2013-11-16 07:53:00
2:53 AM,-9999,-9999,N/A,29.42,9.0,South,12.7,-,N/A,,Clear,170,2013-11-16 08:53:00
3:53 AM,-9999,-9999,N/A,29.40,10.0,South,12.7,-,N/A,,Clear,170,2013-11-16 09:53:00
4:53 AM,-9999,-9999,N/A,29.40,10.0,South,10.4,-,N/A,,Clear,170,2013-11-16 10:53:00
5:53 AM,-9999,-9999,N/A,29.39,10.0,South,12.7,-,N/A,,Mostly Cloudy,170,2013-11-16 11:53:00
6:53 AM,-9999,-9999,N/A,29.39,10.0,South,9.2,-,N/A,,Scattered Clouds,170,2013-11-16 12:53:00
7:53 AM,-9999,-9999,N/A,29.38,5.0,SSE,6.9,-,N/A,,Haze,160,2013-11-16 13:53:00
8:53 AM,-9999,-9999,N/A,29.39,7.0,SSE,9.2,-,N/A,,Mostly Cloudy,160,2013-11-16 14:53:00
9:24 AM,-9999,-9999,N/A,29.38,6.0,SE,11.5,-,N/A,,Haze,140,2013-11-16 15:24:00
9:36 AM,-9999,-9999,N/A,29.38,6.0,SSE,11.5,-,N/A,,Haze,150,2013-11-16 15:36:00
9:53 AM,-9999,-9999,N/A,29.40,4.0,SSE,15.0,18.4,N/A,,Haze,160,2013-11-16 15:53:00
10:53 AM,-9999,-9999,N/A,29.40,3.0,SSE,9.2,-,N/A,,Overcast,150,2013-11-16 16:53:00
11:53 AM,-9999,-9999,N/A,29.34,4.0,SE,8.1,-,N/A,,Haze,130,2013-11-16 17:53:00
12:53 PM,-9999,-9999,N/A,29.32,3.0,SE,11.5,-,N/A,,Overcast,130,2013-11-16 18:53:00
1:53 PM,-9999,-9999,N/A,29.29,3.0,SE,11.5,-,N/A,,Overcast,130,2013-11-16 19:53:00
2:05 PM,-9999,-9999,N/A,29.28,2.5,ESE,11.5,-,N/A,,Overcast,120,2013-11-16 20:05:00
2:15 PM,41.0,39.9,96,29.28,2.0,ESE,10.4,-,N/A,,Overcast,120,2013-11-16 20:15:00
2:53 PM,41.0,39.9,96,29.28,2.5,ESE,6.9,-,N/A,,Overcast,110,2013-11-16 20:53:00
3:24 PM,41.0,39.9,96,29.28,1.8,East,4.6,-,N/A,,Overcast,90,2013-11-16 21:24:00
3:45 PM,39.9,39.9,100,29.28,0.8,East,5.8,-,N/A,,Overcast,100,2013-11-16 21:45:00
3:53 PM,39.9,39.9,100,29.28,0.5,East,6.9,-,N/A,Fog,Fog,100,2013-11-16 21:53:00
4:11 PM,39.9,39.9,100,29.27,0.2,East,5.8,-,N/A,Fog,Fog,80,2013-11-16 22:11:00
4:25 PM,41.0,41.0,100,29.28,0.5,Calm,Calm,-,N/A,Fog,Fog,0,2013-11-16 22:25:00
4:53 PM,41.0,41.0,100,29.27,1.0,ENE,4.6,-,N/A,,Overcast,70,2013-11-16 22:53:00
5:53 PM,41.0,41.0,100,29.27,1.2,East,3.5,-,N/A,,Overcast,80,2013-11-16 23:53:00
6:53 PM,39.9,39.9,100,29.26,1.0,NE,4.6,-,N/A,,Overcast,50,2013-11-17 00:53:00
7:53 PM,39.9,39.9,100,29.26,1.2,NE,5.8,-,N/A,,Overcast,50,2013-11-17 01:53:00
8:53 PM,39.9,39.9,100,29.25,1.5,East,4.6,-,0.01,Rain,Light Rain,90,2013-11-17 02:53:00
9:26 PM,39.9,39.9,100,29.25,2.0,East,6.9,-,0.00,Rain,Light Rain,100,2013-11-17 03:26:00
9:53 PM,39.9,39.9,100,29.24,1.8,East,4.6,-,0.00,Rain,Light Rain,90,2013-11-17 03:53:00
10:48 PM,39.2,39.2,100,29.24,0.8,Calm,Calm,-,0.02,Rain,Light Rain,0,2013-11-17 04:48:00
10:53 PM,39.9,39.9,100,29.24,0.8,Calm,Calm,-,0.03,Rain,Light Rain,0,2013-11-17 04:53:00
11:53 PM,39.0,39.0,100,29.25,0.5,Calm,Calm,-,0.01,Fog-Rain,Light Rain,0,2013-11-17 05:53:00